New York, NY

6:35 AM EST on January 17, 2018 (GMT -0500)
La Guardia

Weather History for KLGA - October, 2012

Change the Weather History Date:

Monday, October 8, 2012

  Actual Average Record
Temperature  
Mean Temperature 52 °F 61 °F  
Max Temperature 56 °F 68 °F 89 °F (2007)
Min Temperature 48 °F 54 °F 40 °F (1964)
Degree Days  
Heating Degree Days 13 5  
Month to date heating degree days 25 36  
Since 1 July heating degree days 34 71  
Cooling Degree Days 0 1  
Month to date cooling degree days 24 13  
Year to date cooling degree days 1508 1203  
Growing Degree Days 2 (Base 50)    
Moisture  
Dew Point 42 °F    
Average Humidity 68    
Maximum Humidity 80    
Minimum Humidity 55    
Precipitation  
Precipitation 0.00 in 0.13 in 3.51 in (2005)
Month to date precipitation 0.58 0.99  
Year to date precipitation 29.25 34.97  
Snow  
Snow 0.00 in 0.00 in - ()
Month to date snowfall 0.0 0.0  
Since 1 July snowfall 0.0 0.0  
Snow Depth 0.00 in    
Sea Level Pressure  
Sea Level Pressure 30.22 in    
Wind  
Wind Speed 7 mph (NNW)    
Max Wind Speed 14 mph    
Max Gust Speed 18 mph    
Visibility 10 miles    
Events      
T = Trace of Precipitation, MM = Missing Value Source: NWS Daily Summary

Daily Weather History Graph

Daily Weather History Graph

Search for Another Location

Airport or City:

Trip Planner

Search our weather history database for the weather conditions in past years. The results will help you decide how hot, cold, wet, or windy it might be!

Date:

Astronomy

Oct. 08, 2012 Rise Set
Actual Time 6:59 AM EDT 6:25 PM EDT
Civil Twilight 6:32 AM EDT 6:52 PM EDT
Nautical Twilight 6:00 AM EDT 7:24 PM EDT
Astronomical Twilight 5:28 AM EDT 7:56 PM EDT
Moon No Moon Rise 2:15 PM EDT (10/8)
Length of Visible Light 12h 20m
Length of Day
11h 25m
Waning Gibbous, 46% of the Moon is Illuminated
Oct 8
Waning Gibbous
Oct 15
New
Oct 21
First Quarter
Oct 29
Full
Nov 6
Last Quarter

Hourly Weather History & Observations

Time (EDT) Temp. Dew Point Humidity Pressure Visibility Wind Dir Wind Speed Gust Speed Precip Events Conditions
12:51 AM 50.0 °F 43.0 °F 77% 30.11 in 10.0 mi NW 6.9 mph - N/A   Scattered Clouds
1:51 AM 50.0 °F 43.0 °F 77% 30.12 in 10.0 mi NW 9.2 mph - N/A   Partly Cloudy
2:51 AM 50.0 °F 43.0 °F 77% 30.13 in 10.0 mi NW 10.4 mph - N/A   Clear
3:51 AM 48.2 °F 42.8 °F 82% 30.13 in 10.0 mi WNW 9.2 mph - N/A   Clear
4:51 AM 48.9 °F 42.1 °F 77% 30.15 in 10.0 mi NW 12.7 mph - N/A   Clear
5:51 AM 48.0 °F 41.0 °F 77% 30.15 in 10.0 mi WNW 9.2 mph - N/A   Clear
6:51 AM 48.9 °F 42.1 °F 77% 30.19 in 10.0 mi WNW 11.5 mph - N/A   Clear
7:51 AM 48.0 °F 41.0 °F 77% 30.22 in 10.0 mi NW 10.4 mph - N/A   Scattered Clouds
8:51 AM 50.0 °F 39.2 °F 66% 30.25 in 10.0 mi NNW 12.7 mph - N/A   Scattered Clouds
9:51 AM 51.1 °F 41.0 °F 68% 30.26 in 10.0 mi NNW 8.1 mph - N/A   Mostly Cloudy
10:51 AM 53.1 °F 41.0 °F 64% 30.25 in 10.0 mi Variable 4.6 mph - N/A   Mostly Cloudy
11:51 AM 54.0 °F 39.9 °F 59% 30.25 in 10.0 mi Calm Calm - N/A   Overcast
12:51 PM 53.6 °F 41.0 °F 62% 30.26 in 10.0 mi Calm Calm - N/A   Overcast
1:51 PM 55.0 °F 39.9 °F 57% 30.26 in 10.0 mi Calm Calm - N/A   Overcast
2:51 PM 55.0 °F 39.0 °F 55% 30.24 in 10.0 mi Variable 4.6 mph - N/A   Overcast
3:51 PM 55.0 °F 39.0 °F 55% 30.24 in 10.0 mi Calm Calm - N/A   Overcast
4:51 PM 55.9 °F 39.9 °F 55% 30.25 in 10.0 mi Variable 4.6 mph - N/A   Overcast
5:51 PM 55.0 °F 42.1 °F 62% 30.27 in 10.0 mi NNW 4.6 mph - N/A   Overcast
6:51 PM 55.0 °F 42.1 °F 62% 30.25 in 10.0 mi NNW 4.6 mph - N/A   Overcast
7:51 PM 55.4 °F 42.8 °F 63% 30.26 in 10.0 mi NE 5.8 mph - N/A   Overcast
8:51 PM 53.6 °F 42.8 °F 67% 30.25 in 10.0 mi ENE 5.8 mph - N/A   Overcast
9:51 PM 54.0 °F 44.1 °F 69% 30.25 in 10.0 mi East 9.2 mph - N/A   Mostly Cloudy
10:51 PM 54.0 °F 42.1 °F 64% 30.25 in 10.0 mi East 6.9 mph - N/A   Overcast
11:51 PM 54.0 °F 45.0 °F 72% 30.22 in 10.0 mi NNE 6.9 mph - N/A   Mostly Cloudy